Regional Weather Roundup
Issued by NWS Cleveland, OH

Home | Current Version | Previous Version | Graphics & Text | Print | Product List | Glossary On
Versions: 1 2 3 4 5 6 7 8 9 10 11 12 13 14 15 16 17 18 19 20 21 22 23 24 25 26 27 28 29 30 31 32 33 34 35 36 37 38 39 40 41 42 43 44 45 46 47 48 49 50
000
ASUS41 KCLE 120410
RWRCLE
OHIO REGIONAL WEATHER ROUNDUP
NATIONAL WEATHER SERVICE CLEVELAND, OH
1100 PM EST THU FEB 11 2016

NOTE: "FAIR" INDICATES FEW OR NO CLOUDS BELOW 12,000 FEET WITH NO
SIGNIFICANT WEATHER AND/OR OBSTRUCTIONS TO VISIBILITY.

OHZ001>008-015>018-024>027-034-035-043-044-120500-
   NORTHWEST OHIO

CITY           SKY/WX    TMP DP  RH WIND       PRES   REMARKS
DEFIANCE       MOCLDY    18  10  71 SW3       30.28R
FINDLAY        CLOUDY    20  11  68 SW7       30.26R WCI  11
TOLEDO EXPRESS CLEAR     11   5  77 SW5       30.26S WCI   3
TOLEDO EXEC    PTCLDY    14   5  67 SW5       30.27S WCI   6
LIMA           CLEAR     14   6  70 S5        30.26S WCI   6
$$

OHZ009>014-019>023-028>033-038-089-120500-
   NORTHEAST OHIO

CITY           SKY/WX    TMP DP  RH WIND       PRES   REMARKS
CLE-HOPKINS    PTCLDY    10   2  69 SW6       30.28S WCI   0
CLE-LAKEFRONT  FLURRIES  17   6  62 SW12      30.25F WCI   4
CUY CO. ARPT   MOCLDY    18   9  68 SW9       30.25S WCI   6
LORAIN-ELYRIA  CLEAR      6   0  76 SW8       30.26S WCI  -7
ASHTABULA      CLOUDY    13   6  74 S6        30.24F WCI   4
AKRON-CANTON   CLEAR      9   1  70 SW5       30.23F WCI   1
WOOSTER        PTCLDY     1  -4  79 CALM      30.25S
MANSFIELD      CLOUDY    11   3  70 S5        30.23S WCI   3
YOUNGSTOWN     PTCLDY     8   4  83 SW7       30.23S WCI  -3
$$

OHZ042-051>053-060>062-070>072-077>081-120500-
  SOUTHWEST OHIO

CITY           SKY/WX    TMP DP  RH WIND       PRES   REMARKS
CINC-COVINGTON MOCLDY    20   9  62 E3        30.28F
CINC-LUNKEN    PTCLDY    18  11  74 NE3       30.33F
HAMILTON       PTCLDY    17  11  77 CALM      30.31F
DAYTON         PTCLDY    17   8  67 CALM      30.28S
WRIGHT-PAT AFB PTCLDY    14   7  75 CALM      30.28F
DAYTON GENERAL CLOUDY    15   5  64 CALM      30.27F
WILMINGTON     CLOUDY     9   4  80 SE3       30.27F
$$

OHZ036-037-039>041-045>050-054>059-063>069-073>076-082>088-120500-
  CENTRAL AND SOUTHEAST OHIO

CITY           SKY/WX    TMP DP  RH WIND       PRES   REMARKS
COLUMBUS       CLOUDY    14   7  73 CALM      30.28F
OSU AIRPORT    CLOUDY    15   8  73 CALM      30.27F
BOLTON FIELD   CLOUDY     9   6  88 MISG      30.29S
RICKENBACK AFB CLOUDY    10   5  80 CALM      30.29F
NEWARK         CLOUDY     9   4  80 CALM      30.28F
MARION         CLOUDY    18   8  65 SW6       30.26F WCI  10
LANCASTER      CLOUDY     5   1  83 S3        30.29F
ZANESVILLE     CLOUDY    10   5  80 SE3       30.28F
NEW PHILLY     PTCLDY     8   2  76 CALM      30.29S
$$



USA.gov is the U.S. government's official web portal to all federal, state and local government web resources and services.